GW2041 Weather Reports


Display with metric or nautical units.
time (UTC)temp
F
wind
direction
speed
MPH
gust
MPH
rain 1hr
in
rain 24hr
in
rain mn
in
humidity
%
barometer
mb
20260505153206 53 315 1.0 0.0 0.00 0.00 0.35 89 1008.3
20260505152253 53 338 0.0 2.0 0.00 0.00 0.35 89 1008.3
20260505151255 53 45 0.0 3.0 0.00 0.00 0.35 89 1008.1
20260505150739 53 315 1.0 3.0 0.00 0.00 0.35 89 1008.1
20260505140229 53 23 1.0 6.0 0.00 0.00 0.35 89 1008.3
20260505124221 52 23 1.0 7.0 0.00 0.00 0.35 93 1008.8
20260505123225 51 338 2.0 6.0 0.00 0.00 0.35 93 1008.7
20260505122650 51 45 1.0 4.0 0.00 0.00 0.35 93 1008.7
20260505121214 51 23 2.0 4.0 0.00 0.00 0.35 93 1008.9
20260505120221 51 45 2.0 7.0 0.00 0.00 0.35 93 1008.9
20260505115215 51 315 2.0 5.0 0.00 0.00 0.35 93 1008.9
20260505113219 50 23 0.0 2.0 0.00 0.00 0.35 93 1009.1
20260505112709 50 23 1.0 4.0 0.00 0.00 0.35 94 1009.1
20260505111642 50 23 0.0 1.0 0.00 0.00 0.35 94 1009.0
20260505110208 50 45 1.0 4.0 0.00 0.00 0.35 94 1009.0
20260505101300 49 0 2.0 3.0 0.00 0.03 0.35 95 1009.3
20260505100303 49 248 1.0 1.0 0.00 0.03 0.35 95 1009.3
20260505095258 49 293 2.0 4.0 0.00 0.03 0.35 95 1009.3
20260505094258 49 225 2.0 5.0 0.00 0.03 0.35 96 1009.3
20260505093249 49 45 2.0 5.0 0.00 0.03 0.35 96 1009.3
20260505092244 48 0 1.0 4.0 0.00 0.03 0.35 96 1009.3
20260505091724 48 90 2.0 3.0 0.00 0.03 0.35 96 1009.5
20260505090248 48 338 2.0 5.0 0.00 0.03 0.35 96 1009.5
20260505085244 48 135 2.0 5.0 0.00 0.03 0.35 96 1009.5
20260505084244 47 338 1.0 4.0 0.00 0.03 0.35 96 1009.5
20260505083247 47 135 1.0 3.0 0.00 0.03 0.35 96 1009.5
20260505082246 47 23 1.0 2.0 0.00 0.03 0.35 96 1009.5
20260505081229 47 338 1.0 4.0 0.00 0.03 0.35 96 1009.6
20260505080232 47 68 1.0 3.0 0.00 0.03 0.35 96 1009.6
20260505075229 47 68 1.0 7.0 0.00 0.03 0.35 96 1009.5
20260505074231 47 248 1.0 3.0 0.00 0.03 0.35 96 1009.5
20260505073230 47 338 0.0 3.0 0.03 0.03 0.35 96 1009.6
20260505072232 47 45 1.0 2.0 0.03 0.03 0.35 96 1009.6
20260505071230 47 45 1.0 3.0 0.03 0.03 0.35 96 1009.6
20260505070232 46 338 2.0 7.0 0.03 0.03 0.35 96 1009.6
20260505065232 46 45 0.0 3.0 0.03 0.03 0.35 96 1010.1
20260505064216 46 315 1.0 6.0 0.03 0.03 0.35 96 1010.1
20260505063217 46 23 2.0 8.0 0.00 0.00 0.33 96 1009.6
20260505062217 47 113 2.0 5.0 0.00 0.00 0.33 96 1009.6
20260505061203 47 338 1.0 4.0 0.00 0.00 0.33 96 1009.5
20260505060206 46 0 1.0 4.0 0.00 0.00 0.33 96 1009.5
20260505055202 47 23 2.0 4.0 0.00 0.00 0.33 96 1009.8
20260505054200 46 23 0.0 3.0 0.00 0.00 0.33 96 1009.8
20260505053205 46 315 0.0 4.0 0.00 0.00 0.33 96 1009.6
20260505052203 46 23 1.0 5.0 0.00 0.00 0.33 96 1009.6
20260505051646 46 270 2.0 5.0 0.00 0.00 0.33 96 1009.5
20260505050208 46 45 1.0 3.0 0.00 0.00 0.33 96 1009.5
20260505041313 47 0 1.0 2.0 0.03 0.30 0.30 96 1009.6
20260505040307 47 23 0.0 2.0 0.06 0.30 0.30 96 1009.6
20260505035735 47 270 1.0 2.0 0.06 0.30 0.30 96 1009.6
20260505034303 47 158 1.0 4.0 0.06 0.27 0.27 96 1009.6
20260505033307 47 45 1.0 3.0 0.06 0.27 0.27 96 1009.9
20260505032740 48 158 1.0 3.0 0.08 0.27 0.27 96 1009.9
20260505031303 48 180 0.0 2.0 0.08 0.27 0.27 95 1010.0
20260505030739 48 180 0.0 2.0 0.08 0.24 0.24 96 1010.0
20260505025304 48 315 0.0 2.0 0.08 0.24 0.24 96 1010.0
20260505024302 48 270 1.0 4.0 0.08 0.22 0.22 95 1010.0
20260505023304 49 338 1.0 3.0 0.08 0.22 0.22 95 1010.1
20260505022803 49 315 1.0 3.0 0.08 0.19 0.19 95 1010.1
20260505021257 49 23 0.0 3.0 0.08 0.19 0.19 95 1010.0
20260505020258 49 45 0.0 2.0 0.05 0.16 0.16 95 1010.0
20260505015254 50 338 0.0 2.0 0.08 0.16 0.16 95 1010.2
20260505014734 50 45 1.0 4.0 0.05 0.13 0.13 95 1010.2
20260505013734 51 225 0.0 6.0 0.05 0.13 0.13 95 1010.2
20260505012736 51 23 0.0 6.0 0.06 0.11 0.11 95 1010.2
20260505011250 51 315 0.0 0.0 0.06 0.11 0.11 95 1010.3
20260505005253 52 23 0.0 3.0 0.03 0.08 0.08 94 1010.4
20260505004256 52 68 0.0 2.0 0.03 0.08 0.08 95 1010.4
20260505003256 52 338 0.0 2.0 0.06 0.08 0.08 94 1010.6
20260505002244 52 68 0.0 3.0 0.03 0.06 0.06 94 1010.6
20260505001239 52 23 0.0 0.0 0.03 0.06 0.06 94 1010.8
20260505000241 53 23 0.0 0.0 0.03 0.06 0.06 94 1010.8
20260504235237 53 0 0.0 1.0 0.03 0.06 0.06 94 1011.2
20260504234239 53 45 0.0 2.0 0.03 0.06 0.06 94 1011.2
20260504233234 53 23 0.0 0.0 0.03 0.03 0.03 94 1011.5
20260504232228 54 23 0.0 2.0 0.03 0.03 0.03 93 1011.5
20260504231656 54 90 0.0 1.0 0.03 0.03 0.03 93 1011.7
20260504230226 54 0 0.0 0.0 0.03 0.03 0.03 93 1011.7
20260504225216 54 338 0.0 2.0 0.03 0.03 0.03 93 1011.9
20260504224213 54 23 0.0 2.0 0.03 0.03 0.03 93 1011.9
20260504223215 55 45 0.0 1.0 0.00 0.00 0.00 93 1012.2
20260504222211 55 338 0.0 2.0 0.00 0.00 0.00 93 1012.2
20260504221213 55 113 0.0 0.0 0.00 0.00 0.00 92 1012.1
20260504220216 55 45 0.0 4.0 0.00 0.00 0.00 92 1012.1
20260504215211 55 68 0.0 0.0 0.00 0.00 0.14 92 1012.3
20260504214210 56 0 0.0 0.0 0.00 0.00 0.14 92 1012.3
20260504213214 57 293 0.0 0.0 0.00 0.00 0.11 90 1012.2
20260504212412 56 23 0.0 1.0 0.06 0.11 0.11 91 1012.5
20260504211410 56 180 0.0 0.0 0.08 0.11 0.11 91 1012.2
20260504210409 57 293 0.0 0.0 0.08 0.11 0.11 90 1012.2
20260504205408 57 45 0.0 2.0 0.11 0.11 0.11 90 1012.0
20260504204849 57 23 0.0 2.0 0.08 0.08 0.08 89 1012.0
20260504203856 58 0 0.0 2.0 0.06 0.06 0.06 89 1012.0
20260504202408 58 270 0.0 2.0 0.06 0.06 0.06 88 1012.0
20260504201831 58 338 0.0 2.0 0.03 0.03 0.03 87 1011.7
20260504200355 59 23 0.0 0.0 0.00 0.00 0.00 86 1011.7
20260504195356 59 23 1.0 3.0 0.00 0.00 0.00 85 1011.6
20260504194355 60 23 2.0 5.0 0.00 0.00 0.00 84 1011.6
20260504193355 60 45 2.0 4.0 0.00 0.00 0.00 84 1012.1
20260504192357 60 45 2.0 4.0 0.00 0.00 0.00 84 1012.1
20260504191357 61 338 1.0 5.0 0.00 0.00 0.00 84 1011.5
20260504190342 61 23 2.0 4.0 0.00 0.00 0.00 84 1011.5
20260504185324 61 338 0.0 4.0 0.00 0.00 0.00 83 1011.1
20260504184326 61 338 1.0 4.0 0.00 0.00 0.00 83 1011.1
20260504183324 61 225 1.0 2.0 0.00 0.00 0.00 83 1011.1
20260504182325 62 23 0.0 2.0 0.00 0.00 0.00 82 1011.1
20260504181806 62 45 0.0 0.0 0.00 0.00 0.00 82 1011.1
20260504175325 63 68 0.0 3.0 0.00 0.00 0.00 81 1011.1
20260504174316 63 45 0.0 2.0 0.00 0.00 0.00 81 1011.1
20260504173312 64 68 1.0 4.0 0.00 0.00 0.00 80 1011.0
20260504172313 64 0 0.0 4.0 0.00 0.00 0.00 79 1011.0
20260504171313 65 338 0.0 2.0 0.00 0.00 0.00 79 1010.8
20260504170327 65 23 0.0 0.0 0.00 0.00 0.00 79 1010.8
20260504160305 67 180 0.0 1.0 0.00 0.00 0.00 75 1011.3